Lexington Weather

Lexington, Massachusetts, USA

77°F
8/3/2020 7:46am 
  • Lexington Conditions: Clear
  • Temperature: 77.4°F / 25.2°CWarmer 0.9°F than last hour.
  • Dew Point: 73.6°FDecreased 1.2°Fsince last hour.
  • Relative Humidity: 88%Decreased 7.0% since last hour.
  • Wind: Wind from SSE SSE 2 mph, 10-min avg: 3 mph, gust: 10 mph
  • Barometer: 29.85 in Steady
  • Visibility: 10 miles
  • Rain Today: 0.00 in
  •   

Regional Weather Roundup
for Boston / Norton, MA

        
000
ASUS41 KBOX 312204
RWRBOX

REGIONAL WEATHER ROUNDUP
NATIONAL WEATHER SERVICE BOSTON/NORTON MA
600 PM EDT FRI JUL 31 2020

NOTE:  "FAIR" INDICATES FEW OR NO CLOUDS BELOW 12,000 FEET WITH NO 
SIGNIFICANT WEATHER AND/OR OBSTRUCTIONS TO VISIBILITY.

MAZALL-312300-
EASTERN MASSACHUSETTS
  
CITY           SKY/WX    TMP DP  RH WIND       PRES   REMARKS
BOSTON         PTSUNNY   76  66  71 SE9       29.80S                  
BEVERLY        MOSUNNY   78  64  61 SE8       29.79S                  
LAWRENCE       MOSUNNY   83  64  52 E8        29.81R                  
BEDFORD        MOSUNNY   84  64  50 SE9       29.78R                  
BLUE HILL      NOT AVBL                                               
NORWOOD        SUNNY     84  61  45 E6        29.79R                  
MARSHFIELD     SUNNY     79  68  69 VRB6      29.80S                  
PLYMOUTH       MOSUNNY   77  66  68 NE8       29.81R                  
TAUNTON        MOSUNNY   83  66  56 VRB7      29.79R                  
NEW BEDFORD    CLOUDY    79  69  71 E7        29.79R                  
$$

MAZALL-312300-
CAPE COD AND THE ISLANDS
  
CITY           SKY/WX    TMP DP  RH WIND       PRES   REMARKS
FALMOUTH       NOT AVBL                                               
HYANNIS        CLOUDY    80  65  59 N6        29.80R                  
CHATHAM        CLOUDY    75  67  76 E5        29.82R                  
PROVINCETOWN   MOSUNNY   78  68  71 E8        29.81S                  
NANTUCKET      CLOUDY    73  68  84 SE3       29.81R                  
MARTHAS VNYRD  CLOUDY    74  68  81 S3        29.81R                  
$$
 
MAZALL-312300-
CENTRAL AND WESTERN MASSACHUSETTS
  
CITY           SKY/WX    TMP DP  RH WIND       PRES   REMARKS
WORCESTER      MOSUNNY   82  58  43 N6        29.83S                  
FITCHBURG      MOSUNNY   87  55  33 VRB6      29.80R                  
ORANGE         SUNNY     87  56  34 NW3       29.82R                  
SPRINGFIELD    NOT AVBL                                               
WESTFIELD      SUNNY     87  56  34 NE6       29.79S                  
NORTH ADAMS    SUNNY     84  58  40 W6        29.82R                  
PITTSFIELD     SUNNY     83  61  47 N7        29.83S                  
$$
 
RIZALL-312300-
RHODE ISLAND
  
CITY           SKY/WX    TMP DP  RH WIND       PRES   REMARKS
PROVIDENCE     PTSUNNY   83  69  62 S6        29.79S                  
NEWPORT        CLOUDY    80  69  69 S8        29.79S                  
BLOCK ISLAND   PTSUNNY   73  66  78 S7        29.81S                  
SMITHFIELD     MOSUNNY   85  63  47 SE9       29.81R                  
WESTERLY       MOSUNNY   78  63  59 S7        29.80S                  
$$
 
CTZALL-312300-
CONNECTICUT
  
CITY           SKY/WX    TMP DP  RH WIND       PRES   REMARKS
BRADLEY INTL   MOSUNNY   88  51  28 N8        29.78R                  
HARTFORD       SUNNY     86  64  47 CALM      29.77S                  
BRIDGEPORT     PTSUNNY   78  67  68 SW7       29.79F                  
DANBURY        SUNNY     82  65  56 S7        29.81S                  
GROTON         PTSUNNY   74  69  85 S8        29.79S                  
NEW HAVEN      SUNNY     79  70  74 SW7       29.79F                  
CHESTER        FAIR      84  68  58 S5        29.81S                  
MERIDEN        SUNNY     85  63  47 CALM      29.78S                  
WILLIMANTIC    MOSUNNY   85  64  49 CALM      29.79S                  
OXFORD         MOSUNNY   81  67  62 S6        29.83R                  
$$

MEZ002-015-021-024-NHZ003-005-008-011-012-014-VTZ005-008-312300-
NORTHERN NEW ENGLAND
  
CITY           SKY/WX    TMP DP  RH WIND       PRES   REMARKS
PORTLAND ME    MOSUNNY   81  62  52 S6        29.80S                  
BANGOR ME      MOSUNNY   80  60  50 N10       29.79S                  
CONCORD NH     SUNNY     87  56  34 NW7       29.79S                  
MANCHESTER NH  MOSUNNY   89  55  31 N9        29.77S                  
NASHUA NH      MOSUNNY   87  58  37 N7        29.79S                  
PORTSMOUTH NH  MOSUNNY   79  59  50 E7        29.78                   
JAFFREY NH     SUNNY     84  57  39 VRB3      29.84S                  
KEENE NH       SUNNY     85  54  34 N12       29.81R                  
BURLINGTON VT  MOSUNNY   83  54  36 N9        29.84F                  
MT. WASHINGTON FOG       54  52  94 NW20        N/A  VSB 1/8          
$$

NYZ052-076-312300-
EASTERN NEW YORK
  
CITY           SKY/WX    TMP DP  RH WIND       PRES   REMARKS
ALBANY         MOSUNNY   82  58  43 NW5       29.81S                  
NEW YORK CITY  MOSUNNY   83  63  50 NE6       29.79S                  
$$
 
ANZALL-312300-
MARINE OBSERVATIONS
  
STATION/POSITION TIME  TEMP    WIND        PRES    VSBY  WAVE
                       AIR SEA DIR/SP/G                  HT/PER
                 (UTC) (F)     (DEG/KT/KT) (MB)    (MI)  (FT/S)
BOSTON BUOY      2150   74 75   90/  8/  8 1007.7S         1/10
BUZZARDS BAY     2100          220/  6/  6 1009.9S
NANTUCKET SOUND  2140      76  190/  4/  6   N/A
MASS BAY-STELLWA NOT AVBL
ISLE OF SHOALS   2100   73     120/  6/  6 1008.6F
S OF BLOCK IS    2126      74                N/A           3/ 6
$$

......................KEY.........................
  SKY/WX - SKY CONDITION/PRESENT WEATHER
  TMP    - TEMPERATURE IN FAHRENHEIT
  DWPT   - DEWPOINT IN FAHRENHEIT
  RH     - RELATIVE HUMIDITY IN PERCENT
  WIND   - DIRECTION AND SPEED IN MPH
  PRES   - MEAN SEA LEVEL PRESSURE IN INCHES OF HG
  WCI    - WIND CHILL INDEX
  VSB    - VISIBILITY IN MILES
  HX     - HEAT INDEX
  TC     - TEMPERATURE IN CELSIUS
  VRB    - VARIABLE WIND DIRECTION
  N/A    - NOT AVAILABLE
  
      

Other recent Regional Weather Roundups

Mon Aug 3, 7:04am

Mon Aug 3, 6:04am

Mon Aug 3, 5:04am

Mon Aug 3, 4:04am

Mon Aug 3, 3:04am

Mon Aug 3, 2:04am

Mon Aug 3, 1:04am

Mon Aug 3, 12:05am

Sun Aug 2, 11:04pm

Sun Aug 2, 10:04pm

Sun Aug 2, 9:04pm

Sun Aug 2, 8:04pm

Sun Aug 2, 7:04pm

Sun Aug 2, 6:04pm

Sun Aug 2, 5:04pm

Sun Aug 2, 4:05pm

Sun Aug 2, 3:04pm

Sun Aug 2, 2:05pm

Sun Aug 2, 1:04pm

Sun Aug 2, 12:04pm

Sun Aug 2, 11:04am

Sun Aug 2, 10:04am

Sun Aug 2, 9:05am

Sun Aug 2, 8:05am

Sun Aug 2, 7:04am

Sun Aug 2, 6:04am

Sun Aug 2, 5:04am

Sun Aug 2, 4:05am

Sun Aug 2, 3:04am

Sun Aug 2, 2:04am

Sun Aug 2, 1:04am

Sun Aug 2, 12:05am

Sat Aug 1, 11:04pm

Sat Aug 1, 10:04pm

Sat Aug 1, 9:04pm

Sat Aug 1, 8:05pm

Sat Aug 1, 7:04pm

Sat Aug 1, 6:04pm

Sat Aug 1, 5:05pm

Sat Aug 1, 4:05pm

Sat Aug 1, 3:04pm

Sat Aug 1, 2:04pm

Sat Aug 1, 1:04pm

Sat Aug 1, 12:04pm

Sat Aug 1, 11:05am

Sat Aug 1, 10:05am

Sat Aug 1, 9:04am

Sat Aug 1, 8:04am

Sat Aug 1, 7:04am

Sat Aug 1, 6:04am

Sat Aug 1, 5:04am

Sat Aug 1, 4:05am

Sat Aug 1, 3:04am

Sat Aug 1, 2:04am

Sat Aug 1, 1:04am

Sat Aug 1, 12:05am

Fri Jul 31, 11:05pm

Fri Jul 31, 10:04pm

Fri Jul 31, 9:04pm

Fri Jul 31, 8:05pm

Fri Jul 31, 7:05pm

Fri Jul 31, 5:04pm

Fri Jul 31, 4:05pm

Fri Jul 31, 3:04pm

Fri Jul 31, 2:05pm

Fri Jul 31, 1:04pm

Fri Jul 31, 12:04pm

Fri Jul 31, 11:04am

Fri Jul 31, 10:04am

Fri Jul 31, 9:04am

Fri Jul 31, 8:04am

Fri Jul 31, 7:04am

Fri Jul 31, 6:04am

Fri Jul 31, 5:04am

Fri Jul 31, 4:04am

Fri Jul 31, 3:04am

Fri Jul 31, 2:04am

Fri Jul 31, 1:05am

Fri Jul 31, 12:04am

Thu Jul 30, 11:04pm

Thu Jul 30, 10:04pm

Thu Jul 30, 9:04pm

Thu Jul 30, 8:04pm

Thu Jul 30, 7:05pm

Thu Jul 30, 6:04pm

Thu Jul 30, 5:04pm

Thu Jul 30, 4:05pm

Thu Jul 30, 3:04pm

Thu Jul 30, 2:05pm

Thu Jul 30, 1:04pm

Thu Jul 30, 12:04pm

Thu Jul 30, 11:04am

Thu Jul 30, 10:05am

Thu Jul 30, 9:04am

Thu Jul 30, 8:04am

Thu Jul 30, 7:04am

Thu Jul 30, 6:04am

Thu Jul 30, 5:04am

Thu Jul 30, 4:04am

Thu Jul 30, 3:04am

Thu Jul 30, 2:04am

Thu Jul 30, 1:04am

Thu Jul 30, 12:04am

Wed Jul 29, 11:04pm

Wed Jul 29, 10:04pm

Wed Jul 29, 9:04pm

Wed Jul 29, 8:04pm

Wed Jul 29, 7:05pm

Wed Jul 29, 6:05pm

Wed Jul 29, 5:04pm

Wed Jul 29, 4:04pm

Wed Jul 29, 3:04pm

Wed Jul 29, 2:04pm

Wed Jul 29, 1:05pm

Wed Jul 29, 12:05pm

Wed Jul 29, 11:04am

Wed Jul 29, 10:04am

Wed Jul 29, 9:04am

Wed Jul 29, 8:04am

Wed Jul 29, 7:04am

Wed Jul 29, 6:04am

Wed Jul 29, 5:04am

Wed Jul 29, 4:04am

Wed Jul 29, 3:04am

Wed Jul 29, 2:04am

Wed Jul 29, 1:04am

Wed Jul 29, 12:05am

Tue Jul 28, 11:05pm

Tue Jul 28, 10:05pm

Tue Jul 28, 9:04pm

Tue Jul 28, 8:04pm

Tue Jul 28, 7:04pm

Tue Jul 28, 6:04pm

Tue Jul 28, 5:04pm

Tue Jul 28, 4:05pm

Tue Jul 28, 3:05pm

Tue Jul 28, 2:04pm

Tue Jul 28, 1:05pm

Tue Jul 28, 12:04pm

Tue Jul 28, 11:04am

Tue Jul 28, 10:04am

Tue Jul 28, 9:04am

Tue Jul 28, 8:04am

Tue Jul 28, 7:04am

Tue Jul 28, 6:04am

Tue Jul 28, 5:04am

Tue Jul 28, 4:04am

Tue Jul 28, 3:04am

Tue Jul 28, 2:04am

Tue Jul 28, 1:04am

Tue Jul 28, 12:05am

Mon Jul 27, 11:04pm

Mon Jul 27, 10:05pm

Mon Jul 27, 9:05pm

Mon Jul 27, 8:04pm

Mon Jul 27, 7:04pm

Mon Jul 27, 6:05pm

Mon Jul 27, 5:05pm

Mon Jul 27, 4:04pm

Mon Jul 27, 3:04pm

Mon Jul 27, 2:04pm

Mon Jul 27, 1:04pm

Mon Jul 27, 12:04pm

Mon Jul 27, 11:04am

Mon Jul 27, 10:04am

Mon Jul 27, 9:04am

Mon Jul 27, 8:04am

Meta data:

ID: 2a707819-0060-4e6c-bc5d-57a4a7590aa3
Link: https://api.weather.gov/products/2a707819-0060-4e6c-bc5d-57a4a7590aa3